Location: Ashtead
(51.3000°N, 0.3000°W)
Time: 12:06:25
(UTC+00:00)

CZ-2C R/B - Visible Passes

Search period start: 13 April 2024 00:00
Search period end: 23 April 2024 00:00
Orbit: 783 x 869 km, 98.3° (Epoch: 12 April)

Date Brightness Start Highest point End Pass type
(mag) Time Alt. Az. Time Alt. Az. Time Alt. Az.
13 Apr 5.2 00:10:15 10° E 00:13:17 15° NE 00:16:19 10° NNE visible
13 Apr 2.8 01:50:43 40° SE 01:52:41 70° ENE 01:58:04 10° N visible
13 Apr 3.9 03:32:11 20° WSW 03:33:26 22° W 03:37:33 10° NW visible
13 Apr 5.3 23:52:52 10° ENE 23:54:37 12° NE 23:56:21 10° NNE visible
14 Apr 3.3 01:31:22 30° SE 01:33:46 51° ENE 01:38:58 10° N visible
14 Apr 3.5 03:12:51 26° WSW 03:14:15 29° W 03:18:57 10° NNW visible
15 Apr 3.9 01:12:02 22° ESE 01:14:53 38° ENE 01:19:48 10° N visible
15 Apr 3.1 02:53:30 33° SW 02:55:07 40° W 03:00:12 10° NNW visible
16 Apr 4.3 00:52:41 16° ESE 00:56:03 29° ENE 01:00:34 10° N visible
16 Apr 2.7 02:34:10 38° SSW 02:36:02 56° W 02:41:20 10° NNW visible
17 Apr 4.7 00:33:21 10° ESE 00:37:16 22° ENE 00:41:15 10° N visible
17 Apr 2.5 02:14:49 38° S 02:17:00 78° WSW 02:22:23 10° NNW visible
17 Apr 4.4 03:56:18 12° WSW 03:58:07 14° W 04:00:45 10° NW visible
18 Apr 5.1 00:15:15 10° E 00:18:32 17° NE 00:21:46 10° NNE visible
18 Apr 2.7 01:55:29 33° SSE 01:58:01 78° ENE 02:03:22 10° NNW visible
18 Apr 4.1 03:36:57 16° WSW 03:38:51 19° W 03:42:37 10° NW visible
18 Apr 5.3 23:57:41 10° ENE 23:59:50 12° NE 00:01:58 10° NNE visible
19 Apr 3.2 01:36:09 26° SE 01:39:04 57° ENE 01:44:16 10° N visible
19 Apr 3.7 03:17:37 21° SW 03:19:39 26° W 03:24:07 10° NW visible
20 Apr 3.7 01:16:48 20° SE 01:20:10 42° ENE 01:25:08 10° N visible
20 Apr 3.3 02:58:17 26° SW 03:00:30 36° W 03:05:24 10° NNW visible
21 Apr 4.2 00:57:28 14° ESE 01:01:19 31° ENE 01:05:55 10° N visible
21 Apr 2.8 02:38:57 29° SSW 02:41:23 50° W 02:46:34 10° NNW visible
22 Apr 4.6 00:38:21 10° ESE 00:42:30 23° ENE 00:46:37 10° N visible
22 Apr 2.6 02:19:36 30° S 02:22:20 70° WSW 02:27:39 10° NNW visible
22 Apr 4.5 04:01:40 10° WSW 04:03:33 12° W 04:05:25 10° WNW visible
